Bookmark and Share
Track history (hours):
 

Monte Cervantes

Last reported at 2014-Apr-18 14:33 UTC. Time now 2014-Apr-20 05:50 UTC.
Position S 32°60' W 071°35'.

Length 272.1 m; beam 40 m; draft 12.5 m.

Type: Cargo ship. MMSI: 211128000.

NotesDate/timePositionNaut miles runAvg speedWind from/ knotsBaromVisibWave heightAir tempDewpointWater temp
2014-Apr-18 14:33S 32°60' W 071°35'0 0.0
2014-Apr-18 13:27S 32°60' W 071°35'0 0.0
2014-Apr-18 12:33S 32°60' W 071°35'0 0.0
2014-Apr-18 04:07S 32°60' W 071°35'3 4.7
2014-Apr-18 03:31S 33°02' W 071°37'0 0.3
2014-Apr-18 02:32S 33°02' W 071°38'0 0.0
2014-Apr-18 01:32S 33°02' W 071°38'0 0.0
2014-Apr-18 00:23S 33°02' W 071°38'0 0.0
2014-Apr-17 23:29S 33°02' W 071°38'0 0.0
2014-Apr-17 22:32S 33°02' W 071°38'0 0.0
2014-Apr-17 21:29S 33°02' W 071°38'0 0.0
2014-Apr-17 20:32S 33°02' W 071°38'0 0.0
2014-Apr-17 19:32S 33°02' W 071°38'0 0.0
2014-Apr-17 18:32S 33°02' W 071°38'0 0.0
2014-Apr-17 17:32S 33°02' W 071°38'0 0.0
2014-Apr-17 16:32S 33°02' W 071°38'0 0.0
2014-Apr-17 15:32S 33°02' W 071°38'0 0.0
2014-Apr-17 14:32S 33°02' W 071°38'0 0.0
2014-Apr-17 13:32S 33°02' W 071°38'0 0.0
2014-Apr-17 12:32S 33°02' W 071°38'0 0.0
2014-Apr-17 11:29S 33°02' W 071°38'0 0.0
2014-Apr-17 10:32S 33°02' W 071°38'0 0.0
2014-Apr-17 08:29S 33°02' W 071°38'0 0.0
2014-Apr-17 07:23S 33°02' W 071°38'0 0.0
2014-Apr-17 06:29S 33°02' W 071°38'0 0.0
2014-Apr-17 05:20S 33°02' W 071°38'0 0.0
2014-Apr-17 04:23S 33°02' W 071°38'0 0.0
2014-Apr-17 03:29S 33°02' W 071°38'0 0.0
2014-Apr-17 02:34S 33°02' W 071°38'0 0.0
2014-Apr-17 01:32S 33°02' W 071°38'0 0.0
2014-Apr-17 00:34S 33°02' W 071°38'0 0.0
2014-Apr-16 23:32S 33°02' W 071°38'0 0.0
2014-Apr-16 22:34S 33°02' W 071°38'0 0.0
2014-Apr-16 21:34S 33°02' W 071°38'0 0.0
2014-Apr-16 20:34S 33°02' W 071°38'0 0.0
2014-Apr-16 19:34S 33°02' W 071°38'0 0.0
2014-Apr-16 18:34S 33°02' W 071°38'0 0.0
2014-Apr-16 17:34S 33°02' W 071°38'0 0.0
2014-Apr-16 16:34S 33°02' W 071°38'0 0.0
2014-Apr-16 15:34S 33°02' W 071°38'0 0.0
2014-Apr-16 14:34S 33°02' W 071°38'0 0.0
2014-Apr-16 13:34S 33°02' W 071°38'0 0.0
2014-Apr-16 12:33S 33°02' W 071°38'0 0.0
2014-Apr-16 11:33S 33°02' W 071°38'0 0.0
2014-Apr-16 10:33S 33°02' W 071°38'0 0.0
2014-Apr-16 09:33S 33°02' W 071°38'0 0.0
2014-Apr-16 08:34S 33°02' W 071°38'6 5.7
2014-Apr-16 07:33S 32°56' W 071°40'1312.6
2014-Apr-16 06:33S 32°49' W 071°52'2 2.3
2014-Apr-16 05:33S 32°51' W 071°51'2 2.1
2014-Apr-16 04:33S 32°53' W 071°50'2 2.2
2014-Apr-16 03:33S 32°55' W 071°49'2 1.9
2014-Apr-16 02:33S 32°57' W 071°48'2 1.9
2014-Apr-16 01:33S 32°59' W 071°47'7 6.9
2014-Apr-16 00:34S 32°53' W 071°50'2 1.8
2014-Apr-15 23:33S 32°54' W 071°50'2 1.7
2014-Apr-15 22:33S 32°56' W 071°50'4 3.6
2014-Apr-15 21:33S 32°54' W 071°46'6 5.6
2014-Apr-15 20:33S 32°51' W 071°41'2 1.7
2014-Apr-15 19:34S 32°52' W 071°43'2 1.6
2014-Apr-15 18:34S 32°53' W 071°44'1 1.2
2014-Apr-15 17:33S 32°53' W 071°46'1 1.0
2014-Apr-15 16:33S 32°54' W 071°46'0 0.4
2014-Apr-15 15:34S 32°54' W 071°46'0 0.3
2014-Apr-15 14:33S 32°54' W 071°46'2 0.8
2014-Apr-15 12:34S 32°56' W 071°46'0 0.4
2014-Apr-15 11:34S 32°55' W 071°46'1111.1
2014-Apr-15 10:34S 32°45' W 071°49'3 1.7
2014-Apr-15 09:00S 32°42' W 071°48'3 5.8 180 / 161012.0 1.1 12.612.314.0
2014-Apr-15 08:33S 32°42' W 071°51'2 2.1
2014-Apr-15 07:34S 32°44' W 071°51'2 2.3
2014-Apr-15 06:34S 32°47' W 071°51'2 2.4
2014-Apr-15 05:34S 32°49' W 071°51'5 2.4
2014-Apr-15 03:33S 32°54' W 071°52'3 1.7
2014-Apr-15 01:34S 32°57' W 071°50'10 9.7
2014-Apr-15 00:34S 32°49' W 071°45'1211.4
2014-Apr-14 23:31S 32°37' W 071°47'  
2014-Apr-10 18:00S 11°42' W 079°36'13514.9 150 / 171013.010.8 2.522.518.825.0
2014-Apr-10 09:00S 09°36' W 080°24'16513.7 120 / 111011.610.8 22.320.121.0
2014-Apr-09 21:00S 07°00' W 081°18'3812.6 140 / 311008.810.8 1.022.419.521.0
2014-Apr-09 18:00S 06°24' W 081°30'   140 / 141012.0 5.4 1.522.019.019.0

Dump ship's entire track history

sailing weather and tide predictions

Monte Cervantes — DHTK — position and weather